Location: La Silve
(44.2414°N, 5.8889°E)
Time: 21:15:34
(UTC+00:00)

ISS - Visible Passes

Search period start: 22 June 2021 00:00
Search period end: 02 July 2021 00:00
Orbit: 417 x 422 km, 51.6° (Epoch: 22 June)

Date Brightness Start Highest point End Pass type
(mag) Time Alt. Az. Time Alt. Az. Time Alt. Az.
26 Jun -1.4 03:00:17 10° S 03:02:20 15° SE 03:04:24 10° E visible
28 Jun -2.9 03:00:54 11° SSW 03:03:57 40° SE 03:07:08 10° ENE visible
29 Jun -2.2 02:15:15 19° S 02:16:38 25° SE 02:19:27 10° E visible
30 Jun -1.6 01:29:33 15° SE 01:29:33 15° SE 01:31:27 10° E visible
30 Jun -3.7 03:02:30 11° WSW 03:05:47 79° NNW 03:09:10 10° ENE visible
01 Jul -3.7 02:16:44 27° SW 02:18:21 67° SE 02:21:43 10° ENE visible
